Portada
METAR-TAF:

METAR-TAF

Aeroports :

Elsenborn

Bütgenbach, Bèlgica

latitud: 50-28N, longitud: 006-11E, altitud: 564 m

Observació

L'informe es va fer fa 48 minuts, a les 01:55 UTC
Vent 1 kt amb direcció variable
Temperatura 3°C
Humitat 93%
Pressió 1034 hPa
Visibilitat 10 km o més

METAR: EBLB 270155Z AUTO VRB01KT 9999 NCD 03/02 Q1034 BLU

Hora: 04:43 (02:43 UTC)


TAF: manca

Observacions i pronòstics meteorològics de més de 4000 aeroports (METAR i TAF).

Les estacions disponibles són els punts grocs i vermells al mapa.

Posi el ratolí al punt desitjat per veure el nom de l'estació.

Feu clic per veure les observacions i els pronòstics meteorològics.

Per canviar el mapa: feu clic els botons verds amb una creu de color negre per apropar; al botó verd amb un guió per allunyar la imatge; o en les fletxes verdes per a mapes adjacents.


METAR-TAF: